Home > Weather > Kapfenberg > Past weeks

Flag for Austria Past Weather in Kapfenberg, Styria, Austria — Yesterday and Last 2 Weeks

Now
64 °F

Partly cloudy.


Feels Like: 64 °F
Forecast: 60 / 78 °F
Wind: 2 mph from Northeast

Location: Zeltweg

Current Time: Jul 26, 2016 at 2:55:52 AM

Latest Report: Jul 25, 2016 at 10:50 PM


Visibility: 12 mi

Pressure: 30.15 "Hg (28.42 "Hg at 504m altitude)

Humidity: 88%

Dew Point: 61 °F

Location of KapfenbergLocation

Past Weather in Kapfenberg — Graph

°F

Kapfenberg Temperature Yesterday

Maximum temperature yesterday: 75 °F (at 12:50 PM)
Minimum temperature yesterday: 63 °F (at 4:50 AM)
Average temperature yesterday: 68 °F

High & Low Weather Summary for the Past Weeks

 TemperatureHumidityPressure
High88 °F (Jul 11, 1:20 PM)100% (Jul 14, 5:50 AM)30.24 "Hg (Jul 14, 5:50 AM)
Low43 °F (Jul 15, 5:50 AM)32% (Jul 20, 3:50 PM)29.86 "Hg (Jul 13, 6:50 PM)
Average67 °F65%30.08 "Hg
* Reported Jul 10 10:50 PM — Jul 25 10:50 PM, Kapfenberg, Weather by CustomWeather, © 2016

Note: Actual official high and low records may vary slightly from our data, if they occured in-between our weather recording intervals... More about our weather records

Advertising

Kapfenberg Weather History for the Previous 24 Hours

Scroll right to see more
 ConditionsComfort  
Time TempWeatherWind HumidityBarometerVisibility
10:50 PM
Mon, Jul 25
64 °FPartly cloudy.2 mph88%30.15 "Hg12 mi
9:50 PM64 °FPartly cloudy.1 mph88%30.15 "Hg12 mi
8:50 PM64 °FBroken clouds.3 mph94%30.15 "Hg12 mi
7:50 PM66 °FBroken clouds.3 mph88%30.12 "Hg12 mi
6:50 PM66 °FBroken clouds.3 mph88%30.12 "Hg12 mi
5:50 PM64 °FBroken clouds.3 mph94%30.12 "Hg12 mi
4:50 PM64 °FBroken clouds.9 mph88%30.12 "Hg9 mi
3:50 PM72 °FBroken clouds.14 mph69%30.12 "Hg9 mi
2:50 PM75 °FPartly sunny.6 mph65%30.09 "Hg16 mi
1:50 PM75 °FBroken clouds.10 mph61%30.09 "Hg16 mi
12:50 PM75 °FBroken clouds.2 mph65%30.09 "Hg16 mi
11:50 AM73 °FBroken clouds.2 mph74%30.09 "Hg12 mi
10:50 AM72 °FBroken clouds.3 mph73%30.12 "Hg16 mi
9:50 AM68 °FBroken clouds.3 mph78%30.12 "Hg12 mi
8:50 AM66 °FPartly sunny.3 mph83%30.12 "Hg9 mi
7:50 AM64 °FBroken clouds.1 mph88%30.12 "Hg6 mi
6:50 AM63 °FBroken clouds.3 mph94%30.12 "Hg5 mi
5:50 AM63 °FLight rain. Low clouds.2 mph94%30.15 "Hg5 mi
4:50 AM63 °FLight rain. Mostly cloudy.2 mph100%30.15 "Hg6 mi
Weather by CustomWeather, © 2016

See weather overviewHow to use our weather pages